Regional Weather Roundup
Issued by NWS

Home | Current Version | Previous Version | Graphics & Text | Print | Product List | Glossary Off
Versions: 1 2 3 4 5 6 7 8 9 10 11 12 13 14 15 16 17 18 19 20 21 22 23 24 25 26 27 28 29 30 31 32 33 34 35 36 37 38 39 40 41 42 43 44 45 46 47 48 49 50

000
ASUS43 KDTX 240310
RWRMI
MICHIGAN HOURLY REGIONAL WEATHER ROUNDUP
NATIONAL WEATHER SERVICE DETROIT/PONTIAC MI
1100 PM EDT MON OCT 23 2017

NOTE: "FAIR" INDICATES FEW OR NO CLOUDS BELOW 12,000 FEET WITH NO
SIGNIFICANT WEATHER AND/OR OBSTRUCTION TO VISIBILITY.

MIZ047>049-052>055-059>063-066>070-074>076-081>083-240400-
SOUTHEAST LOWER MICHIGAN

CITY           SKY/WX    TMP DP  RH WIND       PRES   REMARKS
ADRIAN         LGT RAIN  53  49  86 W18G28    29.51R
ALMA           RAIN      49  47  93 W18G26    29.41R
ANN ARBOR      CLOUDY    53  52  96 SW18      29.44S
BAD AXE        CLOUDY    60  56  87 S17G25    29.34F
CARO           CLOUDY    60  55  84 S12G20    29.30F
DETROIT CITY   CLOUDY    57  54  89 SW21G31   29.41F
DETROIT        LGT RAIN  55  54  96 SW17      29.45F
FLINT          LGT RAIN  53  51  93 SW16G24   29.36S FOG
GROSSE ILE     RAIN      56  54  92 SW18G25   29.45F
HILLSDALE      RAIN      50  45  81 W22G29    29.52R
HOWELL         DRIZZLE   52  51  97 W16G22    29.41S

CITY           SKY/WX    TMP DP  RH WIND       PRES   REMARKS
JACKSON        LGT RAIN  51  48  89 W18G28    29.48R
LAMBERTVILLE   DRIZZLE   56  52  88 W14G20    29.51S
LANSING        LGT RAIN  51  48  89 W17G26    29.45R
LAPEER         CLOUDY    60  56  85 S14G28    29.35F
MASON          LGT RAIN  52  49  90 W17G28    29.44S
MONROE         DRIZZLE   56  53  91 SW16G22   29.48S
MT. CLEMENS    CLOUDY    59  59 100 S23G37    29.38F
PONTIAC        LGT RAIN  53  52  96 SW14G23   29.36F
PORT HOPE        N/A     61  56  83 S14G29    29.33F
PORT HURON     CLOUDY    61  55  82 S23G38    29.41F
TRI CITIES     LGT RAIN  51  51 100 NW15      29.32F FOG
MIDLAND        DRIZZLE   51  50  98 W9        29.33F
TROY           CLOUDY    57  54  89 S20G32    29.41F
SAGINAW HB     DRIZZLE   52  52 100 W12       29.30F
$$
MIZ043>046-050>051-056>058-064>065-071>073-077>080-240400-
SOUTHWEST LOWER MICHIGAN

CITY           SKY/WX    TMP DP  RH WIND       PRES   REMARKS
BATTLE CREEK   LGT RAIN  49  47  93 W17       29.55R
BENTON HARBOR  CLOUDY    54  44  69 W14       29.59F
BIG RAPIDS     MIX PCPN  47  44  91 NW8       29.46R
COLDWATER      LGT RAIN  50  47  89 NW13G25   29.55F
FREMONT        RAIN      47  47 100 NW9       29.52S
HOLLAND        RAIN      51  47  86 N3        29.55F
GRAND RAPIDS   LGT RAIN  49  47  93 W15       29.52S
IONIA          RAIN      49  48  95 W18G29    29.46F
KALAMAZOO      RAIN      51  47  86 W12       29.56F FOG
LUDINGTON      RAIN      48  47  94 N3        29.52F
MARSHALL       DRIZZLE   49  48  97 W16G22    29.52S
MOUNT PLEASANT LGT RAIN  50  47  90 W15G21    29.39R
MUSKEGON       LGT RAIN  49  46  90 N8        29.54F
SOUTH HAVEN    CLOUDY    55  49  81 W8        29.57F
$$
MIZ016>042-240400-
NORTHERN LOWER MICHIGAN

CITY           SKY/WX    TMP DP  RH WIND       PRES   REMARKS
ALPENA         LGT RAIN  60  60 100 SE18G26   29.29F FOG
BEAVER ISLAND  RAIN      49  46  90 N14G23    29.48F
BELLAIRE       MIX PCPN  47  45  92 NW7       29.44F
CADILLAC       LGT RAIN  45  44  98 NW15G24   29.41F
CHARLEVOIX     RAIN      49  49  98 N22G32    29.47F
FRANKFORT      LGT RAIN  51  49  94 N8        29.50F
GAYLORD        RAIN      46  43  89 NW13G23   29.37F FOG
GRAYLING       LGT SNOW  47  44  88 NW18G25   29.37F
HARBOR SPRINGS RAIN      48  46  93 NW9G20    29.41F
HOUGHTON LAKE  LGT RAIN  47  45  93 NW14G24   29.36F
MANISTEE       RAIN      48  46  93 NW7       29.50
OSCODA         RAIN      61  59  92 S17G28    29.31S
PELLSTON       RAIN      50  47  89 NW24G30   29.41F
ROGERS CITY    HVY RAIN  54  53  97 NW9G22    29.32F
TRAVERSE CITY  RAIN      49  46  90 N10       29.45F
$$
MIZ007>008-015-240400-
EASTERN UPPER MICHIGAN

CITY           SKY/WX    TMP DP  RH WIND       PRES   REMARKS
KINROSS        RAIN      51  49  92 N20G26    29.43F FOG
MACKINAC ISLAN LGT RAIN  51  51 100 N20G26    29.41F
NEWBERRY       RAIN      47  46  97 N9        29.52F
S. S. MARIE    HVY RAIN  52  49  89 N13G21    29.43F FOG
MUNISING         N/A     47  47 100 CALM      29.56F
$$
MIZ004>006-011>014-085-240400-
CENTRAL UPPER MICHIGAN

CITY           SKY/WX    TMP DP  RH WIND       PRES   REMARKS
MANISTIQUE     LGT RAIN  47  42  81 N10G16    29.53F
ESCANABA       CLOUDY    48  46  93 CALM      29.56F
MENOMINEE      CLOUDY    47  46  97 NW3       29.57F
SAWYER-GWINN   CLOUDY    44  41  91 N5        29.58F
$$
MIZ001>003-009>011-084-240400-
WESTERN UPPER MICHIGAN

CITY           SKY/WX    TMP DP  RH WIND       PRES   REMARKS
IRON MOUNTAIN  CLOUDY    45  41  86 NW3       29.57F
HOUGHTON       CLOUDY    49  43  80 N7        29.62F
COPPER HARBOR    N/A     47  44  90 W3        29.62F
IRONWOOD       LGT RAIN  47  43  86 NW20G25   29.70F
$$

ABBREVIATIONS USED IN REMARKS
   TC - TEMPERATURE IN CELSIUS
  WCI - WIND CHILL INDEX
   HX - HEAT INDEX
  VSB - VISIBILITY




USA.gov is the U.S. government's official web portal to all federal, state and local government web resources and services.